Regional Weather Roundup
Issued by NWS

Home | Current Version | Previous Version | Text Only | Print | Product List | Glossary Off
Versions: 1 2 3 4 5 6 7 8 9 10 11 12 13 14 15 16 17 18 19 20 21 22 23 24 25 26 27 28 29 30 31 32 33 34 35 36 37 38 39 40 41 42 43 44 45 46 47 48 49 50

000
ASUS43 KIND 251859
RWRIN

WEATHER ROUNDUP FOR INDIANA
NATIONAL WEATHER SERVICE INDIANAPOLIS IN
300 PM EDT FRI JUL 25 2014

NOTE: "FAIR" INDICATES FEW OR NO CLOUDS BELOW 12,000 FEET WITH NO
SIGNIFICANT WEATHER AND/OR OBSTRUCTIONS TO VISIBILITY.

* - STATION DOES NOT REPORT WEATHER SUCH AS PRECIPITATION OR FOG.

+ - STATION NOT QUALITY CONTROLLED BY THE NATIONAL WEATHER SERVICE.
    USE DATA WITH CAUTION...ESPECIALLY DEWPOINT AND RELATIVE
    HUMIDITY OBSERVATIONS.

INZ001>003-010>013-019-020-252000-
NORTHWEST INDIANA

CITY           SKY/WX    TMP DP  RH WIND       PRES   REMARKS
GARY /AIRPORT/ PTSUNNY   75  59  57 S14       29.96F
KNOX *+        CLOUDY    72  55  55 SW13      30.00F
MONTICELLO +   CLOUDY    72  60  64 SW9       30.02S
RENSSELAER +   CLOUDY    72  61  68 S10       30.01F
VALPARAISO     CLOUDY    74  58  57 S15       29.99F

$$

LMZ046-743>745-252000-
SOUTHERN LAKE MICHIGAN

STATION/POSITION TIME  TEMP WIND        PRES
                       AIR  DIR/SP/G
                 (UTC) (F)  (DEG/KT/KT) (MB)
BURNS HARBOR     1800   73  220/ 13/ 19 1015.9F
MICHIGAN CITY    1800   72  190/ 14/ 18   N/A

$$

INZ004-005-014>016-021>024-252000-
NORTH CENTRAL INDIANA

CITY           SKY/WX    TMP DP  RH WIND       PRES   REMARKS
ELKHART        MOSUNNY   73  54  49 S12       30.01F
GOSHEN         MOSUNNY   75  56  51 SW14G23   30.00F
SOUTH BEND     PTSUNNY   74  56  53 S13       30.00F
WARSAW +       PTSUNNY   72  55  56 SW12      30.02F

$$

INZ006>009-017-018-025>027-252000-
NORTHEAST INDIANA

CITY           SKY/WX    TMP DP  RH WIND       PRES   REMARKS
ANGOLA *+      MOSUNNY   77  54  44 W10       30.01F
AUBURN +       MOSUNNY   75  52  43 SW6       30.03F
FORT WAYNE     PTSUNNY   75  54  47 S10G20    30.03F

$$

INZ028-029-035-036-043>045-051>053-252000-
WEST CENTRAL INDIANA

CITY           SKY/WX    TMP DP  RH WIND       PRES   REMARKS
GREENCASTLE +  CLOUDY    70  59  68 CALM      30.09R
LAFAYETTE      CLOUDY    70  56  61 SW9       30.02F
TERRE HAUTE    CLOUDY    72  57  59 W8        30.09R

$$

INZ030>032-037>040-046>048-054>057-064-065-252000-
CENTRAL INDIANA

CITY           SKY/WX    TMP DP  RH WIND       PRES   REMARKS
COLUMBUS       PTSUNNY   75  55  50 S5        30.06S
INDIANAPOLIS   LGT RAIN  71  54  54 SW7       30.06S
-EAGLE CREEK   CLOUDY    71  54  54 SW5       30.06S
KOKOMO *+      CLOUDY    73  55  53 SW12      30.04S
MT COMFORT *+  PTSUNNY   72  59  64 S7        30.07R
SHELBYVILLE    PTSUNNY   75  57  53 S8        30.06S
ZIONSVILLE +   CLOUDY    72  53  51 W8        30.08R

$$

INZ033-034-041-042-049-050-058-059-252000-
EAST CENTRAL INDIANA

CITY           SKY/WX    TMP DP  RH WIND       PRES   REMARKS
MUNCIE         PTSUNNY   75  53  46 W8        30.05F

$$

INZ060-061-067>069-081>083-085>088-252000-
SOUTHWEST INDIANA

CITY           SKY/WX    TMP DP  RH WIND       PRES   REMARKS
EVANSVILLE     PTSUNNY   80  54  40 NW3       30.06F
HUNTINGBURG *+ CLOUDY    79  57  47 W5        30.07R

$$

INZ062-063-066-070>080-084-089>092-252000-
SOUTH CENTRAL AND SOUTHEAST INDIANA

CITY           SKY/WX    TMP DP  RH WIND       PRES   REMARKS
BLOOMINGTON    CLOUDY    72  58  61 W6        30.09R

$$



USA.gov is the U.S. government's official web portal to all federal, state and local government web resources and services.